• Em Portugal
  • Lista de países
  • Para 7 dias
  • Temperatura da água
  • Mapas de satélite
  • Mapa do tempo
  • Widgets de tempo
  • user-avatar
    Iniciar Sessão

    Previsão horária em Dawei

    Hoje, 20 Fevereiro, Terça-feira

    Tempo Temperatura Precipitação Vento Pressão Humidade
    00:00 +25°C° 0 mm 1 m/s 756 mmHg 77%
    01:00 +25°C° 0 mm 1 m/s 756 mmHg 78%
    02:00 +25°C° 0 mm 1 m/s 755 mmHg 78%
    03:00 +25°C° 0 mm 1 m/s 755 mmHg 78%
    04:00 +25°C° 0 mm 1 m/s 755 mmHg 78%
    05:00 +25°C° 0 mm 1 m/s 755 mmHg 79%
    06:00 +25°C° 0 mm 1 m/s 755 mmHg 79%
    07:00 +25°C° 0 mm 1 m/s 756 mmHg 75%
    08:00 +29°C° 0 mm 1 m/s 756 mmHg 64%
    09:00 +30°C° 0 mm 0 m/s 756 mmHg 52%
    10:00 +34°C° 0 mm 0 m/s 756 mmHg 41%
    11:00 +36°C° 0 mm 1 m/s 756 mmHg 41%
    12:00 +37°C° 0 mm 2 m/s 755 mmHg 41%
    13:00 +36°C° 0 mm 2 m/s 755 mmHg 45%
    14:00 +36°C° 0 mm 2 m/s 754 mmHg 47%
    15:00 +35°C° 0 mm 2 m/s 754 mmHg 48%
    16:00 +35°C° 0 mm 2 m/s 753 mmHg 50%
    17:00 +32°C° 0 mm 2 m/s 753 mmHg 55%
    18:00 +31°C° 0 mm 2 m/s 754 mmHg 60%
    19:00 +29°C° 0 mm 1 m/s 754 mmHg 67%
    20:00 +28°C° 0 mm 1 m/s 754 mmHg 70%
    21:00 +27°C° 0 mm 1 m/s 755 mmHg 73%
    22:00 +27°C° 0 mm 1 m/s 755 mmHg 76%
    23:00 +26°C° 0,5 mm 1 m/s 755 mmHg 78%

    Amanhã, 21 Fevereiro, Quarta-feira

    Tempo Temperatura Precipitação Vento Pressão Humidade
    00:00 +26°C° 0,5 mm 1 m/s 755 mmHg 81%
    01:00 +25°C° 0,5 mm 1 m/s 755 mmHg 83%
    02:00 +25°C° 0,4 mm 1 m/s 755 mmHg 84%
    03:00 +25°C° 0,4 mm 1 m/s 755 mmHg 85%
    04:00 +24°C° 0,4 mm 1 m/s 754 mmHg 86%
    05:00 +24°C° 0,1 mm 1 m/s 754 mmHg 86%
    06:00 +24°C° 0,1 mm 1 m/s 755 mmHg 86%
    07:00 +24°C° 0,1 mm 1 m/s 755 mmHg 86%
    08:00 +28°C° 0 mm 1 m/s 755 mmHg 72%
    09:00 +32°C° 0 mm 1 m/s 755 mmHg 58%
    10:00 +35°C° 0 mm 1 m/s 755 mmHg 44%
    11:00 +36°C° 0 mm 1 m/s 755 mmHg 41%
    12:00 +39°C° 0 mm 1 m/s 754 mmHg 38%
    13:00 +40°C° 0 mm 2 m/s 754 mmHg 35%
    14:00 +38°C° 0 mm 2 m/s 753 mmHg 39%
    15:00 +37°C° 0 mm 3 m/s 753 mmHg 43%
    16:00 +36°C° 0 mm 3 m/s 752 mmHg 46%
    17:00 +34°C° 0 mm 2 m/s 752 mmHg 54%
    18:00 +31°C° 0 mm 2 m/s 753 mmHg 61%
    19:00 +29°C° 0 mm 2 m/s 753 mmHg 68%
    20:00 +28°C° 0 mm 2 m/s 753 mmHg 72%
    21:00 +27°C° 0 mm 1 m/s 754 mmHg 76%
    22:00 +26°C° 0 mm 1 m/s 754 mmHg 80%
    23:00 +26°C° 0,4 mm 1 m/s 754 mmHg 81%

    Depois de amanhã, 22 Fevereiro, Quinta-feira

    Tempo Temperatura Precipitação Vento Pressão Humidade
    00:00 +25°C° 0,4 mm 1 m/s 754 mmHg 82%
    01:00 +25°C° 0,4 mm 1 m/s 754 mmHg 83%
    02:00 +25°C° 0,2 mm 1 m/s 754 mmHg 83%
    03:00 +25°C° 0,2 mm 1 m/s 754 mmHg 83%
    04:00 +25°C° 0,2 mm 1 m/s 753 mmHg 82%
    05:00 +25°C° 0 mm 1 m/s 754 mmHg 82%
    06:00 +25°C° 0 mm 1 m/s 754 mmHg 81%
    07:00 +25°C° 0 mm 1 m/s 754 mmHg 81%
    08:00 +28°C° 0 mm 1 m/s 755 mmHg 68%
    09:00 +31°C° 0 mm 1 m/s 755 mmHg 55%
    10:00 +33°C° 0 mm 0 m/s 756 mmHg 43%
    11:00 +36°C° 0 mm 1 m/s 755 mmHg 41%
    12:00 +38°C° 0 mm 2 m/s 754 mmHg 39%
    13:00 +39°C° 0 mm 2 m/s 754 mmHg 37%
    14:00 +38°C° 0 mm 2 m/s 753 mmHg 41%
    15:00 +37°C° 0 mm 3 m/s 753 mmHg 44%
    16:00 +35°C° 0 mm 3 m/s 752 mmHg 48%
    17:00 +32°C° 0 mm 2 m/s 753 mmHg 56%
    18:00 +30°C° 0 mm 2 m/s 753 mmHg 64%
    19:00 +28°C° 0 mm 2 m/s 753 mmHg 72%
    20:00 +28°C° 0 mm 1 m/s 754 mmHg 76%
    21:00 +27°C° 0 mm 1 m/s 755 mmHg 80%
    22:00 +26°C° 0 mm 1 m/s 756 mmHg 85%
    23:00 +26°C° 0 mm 1 m/s 755 mmHg 84%

    23 Fevereiro, Sexta-feira

    Tempo Temperatura Precipitação Vento Pressão Humidade
    00:00 +26°C° 0 mm 1 m/s 755 mmHg 84%
    01:00 +26°C° 0 mm 1 m/s 755 mmHg 84%
    02:00 +26°C° 0 mm 1 m/s 755 mmHg 83%
    03:00 +25°C° 0 mm 1 m/s 755 mmHg 82%
    04:00 +25°C° 0 mm 1 m/s 754 mmHg 80%
    05:00 +25°C° 0 mm 1 m/s 754 mmHg 80%
    06:00 +25°C° 0 mm 1 m/s 755 mmHg 80%
    07:00 +25°C° 0 mm 1 m/s 755 mmHg 80%
    08:00 +29°C° 0 mm 1 m/s 755 mmHg 67%
    09:00 +30°C° 0 mm 0 m/s 756 mmHg 55%
    10:00 +34°C° 0 mm 0 m/s 756 mmHg 42%
    11:00 +37°C° 0 mm 1 m/s 756 mmHg 40%
    12:00 +39°C° 0 mm 2 m/s 755 mmHg 38%
    13:00 +39°C° 0 mm 2 m/s 755 mmHg 35%
    14:00 +38°C° 0 mm 2 m/s 754 mmHg 40%
    15:00 +36°C° 0 mm 2 m/s 754 mmHg 45%
    16:00 +35°C° 0 mm 3 m/s 753 mmHg 50%
    17:00 +32°C° 0,1 mm 2 m/s 753 mmHg 57%
    18:00 +31°C° 0,1 mm 2 m/s 754 mmHg 64%
    19:00 +29°C° 0,1 mm 1 m/s 754 mmHg 70%
    20:00 +29°C° 0 mm 1 m/s 755 mmHg 72%
    21:00 +28°C° 0 mm 1 m/s 756 mmHg 74%
    22:00 +28°C° 0 mm 1 m/s 757 mmHg 76%
    23:00 +27°C° 0,3 mm 1 m/s 756 mmHg 81%

    24 Fevereiro, Sábado

    Tempo Temperatura Precipitação Vento Pressão Humidade
    00:00 +26°C° 0,3 mm 1 m/s 756 mmHg 86%
    01:00 +25°C° 0,3 mm 1 m/s 756 mmHg 90%
    02:00 +25°C° 0,6 mm 1 m/s 756 mmHg 91%
    03:00 +25°C° 0,6 mm 1 m/s 756 mmHg 91%
    04:00 +25°C° 0,6 mm 1 m/s 755 mmHg 92%
    05:00 +25°C° 0,4 mm 1 m/s 756 mmHg 92%
    06:00 +25°C° 0,4 mm 1 m/s 756 mmHg 92%
    07:00 +25°C° 0,4 mm 1 m/s 757 mmHg 91%
    08:00 +28°C° 0,1 mm 1 m/s 757 mmHg 78%
    09:00 +30°C° 0,1 mm 0 m/s 758 mmHg 65%
    10:00 +33°C° 0,1 mm 0 m/s 758 mmHg 51%
    11:00 +36°C° 0,1 mm 1 m/s 758 mmHg 48%
    12:00 +38°C° 0,1 mm 2 m/s 757 mmHg 44%
    13:00 +38°C° 0,1 mm 2 m/s 756 mmHg 40%
    14:00 +36°C° 0,3 mm 2 m/s 756 mmHg 50%
    15:00 +34°C° 0,3 mm 2 m/s 755 mmHg 60%
    16:00 +31°C° 0,3 mm 2 m/s 754 mmHg 70%
    17:00 +30°C° 1 mm 2 m/s 755 mmHg 75%
    18:00 +29°C° 1 mm 1 m/s 755 mmHg 80%
    19:00 +28°C° 1 mm 1 m/s 756 mmHg 85%
    20:00 +27°C° 0,9 mm 1 m/s 756 mmHg 87%
    21:00 +27°C° 0,9 mm 1 m/s 757 mmHg 89%
    22:00 +26°C° 0,9 mm 1 m/s 757 mmHg 91%
    23:00 +26°C° 0,1 mm 1 m/s 757 mmHg 92%

    25 Fevereiro, Domingo

    Tempo Temperatura Precipitação Vento Pressão Humidade
    00:00 +24°C° 0,1 mm 0 m/s 757 mmHg 93%
    01:00 +24°C° 0,1 mm 0 m/s 756 mmHg 93%
    02:00 +25°C° 0,3 mm 1 m/s 756 mmHg 93%
    03:00 +25°C° 0,3 mm 1 m/s 756 mmHg 93%
    04:00 +25°C° 0,3 mm 1 m/s 755 mmHg 93%
    05:00 +25°C° 0,5 mm 1 m/s 756 mmHg 93%
    06:00 +25°C° 0,5 mm 1 m/s 756 mmHg 93%
    07:00 +25°C° 0,5 mm 1 m/s 756 mmHg 93%
    08:00 +28°C° 0 mm 1 m/s 756 mmHg 78%
    09:00 +32°C° 0 mm 1 m/s 757 mmHg 64%
    10:00 +35°C° 0 mm 1 m/s 757 mmHg 50%
    11:00 +37°C° 0 mm 2 m/s 756 mmHg 45%
    12:00 +39°C° 0 mm 2 m/s 756 mmHg 40%
    13:00 +40°C° 0 mm 3 m/s 755 mmHg 35%
    14:00 +38°C° 0,1 mm 3 m/s 754 mmHg 42%
    15:00 +36°C° 0,1 mm 3 m/s 754 mmHg 50%
    16:00 +34°C° 0,1 mm 3 m/s 753 mmHg 57%
    17:00 +31°C° 0,2 mm 3 m/s 753 mmHg 64%
    18:00 +30°C° 0,2 mm 2 m/s 754 mmHg 70%
    19:00 +29°C° 0,2 mm 2 m/s 754 mmHg 77%
    20:00 +28°C° 0,1 mm 1 m/s 754 mmHg 78%
    21:00 +28°C° 0,1 mm 1 m/s 755 mmHg 80%
    22:00 +27°C° 0,1 mm 1 m/s 755 mmHg 82%
    23:00 +27°C° 0,2 mm 1 m/s 755 mmHg 83%
    Mostrar mais